Showing default

TJS-12, 62374

Orbit data source: Space-Track

TJS-12, 62374 is a payload satellite owned by PLA SSF (CN) in GEO that was launched on Fri, 20 Dec 2024 UTC via a CHANG ZHENG 3B launch vehicle from the Xichang Space Center, China (XSC). Payload-class satellites include a variety of spacecraft equipped with specific instruments for various scientific and technological missions. These include communications satellites like Starlink; space stations such as the ISS; scientific satellites like the Hubble; Earth observation satellites from companies like Planet Labs, Umbra, and HawkEye 360; GPS; miniature CubeSats for education and research; and military/defense satellites.

Not visible in the next 10 days
Identifier
62374, 2024-246A
Orbit
GEO
Country
Flag of CNCN / PRC
Related business
Manufacturer
SISE
Mission
Operational Defense Early Warn
Bus & Motor
FY-4?, LAE
Mass
~5,000 kg wet, ~2,500 kg dry
Launch date (UTC)
2024-12-20 (1 year ago)
Launch vehicle
CHANG ZHENG 3B
Launch site
Xichang Space Center, China (XSC)
Object type
Payload
Rocket body
Debris
Shape & HBR
Box + 2 Pan, 15.0 m
Radar Cross Section
34.063 m², Large (>1 m²)

Expand to show TLE details & history
Last TLE update: 11 hours ago

TLE from 11 hours ago
0 TJS-12
1 62374U 24246A   26071.24420503 -.00000230  00000-0  00000-0 0  9992
2 62374   0.8931 292.0387 0002068  34.9791  77.3099  1.00273412  4598
Epoch: 2026-03-12T05:51Z
TLE epoch observation values (Epoch: 2026-03-12T05:51:39.314Z)
Latitude
0.80897°
Longitude
146.56341°
Altitude
35,783.591 km
Speed
3.075 km/s
True Right ascension
02h 57m 29s
True Declination
0° 48' 29"
Sunlit
Object was in daylight at epoch
Visualization orbit readout
Latitude
Unknown
Longitude
Unknown
Altitude
Unknown
Speed
Unknown
Apparent Right ascension
Unknown
Apparent Declination
Unknown
Sunlit
N/A
Visualization observer readout
Local Sidereal Time
21:12:55
Azimuth
Unknown
Elevation
Unknown
Doppler factor
Unknown
Orbital elements
Apogee altitude
35,795.929 km
Perigee altitude
35,778.489 km
Semi-major axis
42,165.346 km
Eccentricity
0.00021
Inclination
0.8931°
RAAN
292.0387°
Arg. of periapsis
34.9791°
True anomaly
77.33302°
Mean anomaly
77.3099°
Eccentric anomaly
77.32146°
Mean motion
0.25067 °/min
Orbital period
1,436.13 mins
BSTAR
0
Loading maneuver chart data...
Computing Atmospheric mass density...
Loading historical data...
Loading historical data...
Loading historical data...
Loading historical data...
Loading historical data...
Loading historical data...
Loading historical data...
Other satellites on launch #246 in the year 2024 (2024-12-20 UTC)

Documentation

Showing up to 5 results
|